Montague, CA

1:52 AM PDT on September 22, 2019 (GMT -0700)
Siskiyou County

Weather History for KSIY - August, 2019

Change the Weather History Date:

Wednesday, August 21, 2019

  Actual Average Record
Temperature  
Mean Temperature 70 °F 70 °F  
Max Temperature 82 °F 89 °F 99 °F (1950)
Min Temperature 57 °F 51 °F 42 °F (2002)
Degree Days  
Heating Degree Days 0 0  
Month to date heating degree days 5 0  
Since 1 June heating degree days 56 97  
Since 1 July heating degree days 5 4  
Cooling Degree Days 5 5  
Month to date cooling degree days 177 149  
Year to date cooling degree days 561 462  
Since 1 June cooling degree days 559 449  
Growing Degree Days 20 (Base 50)    
Moisture  
Dew Point 50 °F    
Average Humidity 53    
Maximum Humidity 87    
Minimum Humidity 23    
Precipitation  
Precipitation T in 0.00 in 0.56 in (1991)
Month to date precipitation 0.42 0.30  
Year to date precipitation 8.79 10.96  
Sea Level Pressure  
Sea Level Pressure 30.02 in    
Wind  
Wind Speed 6 mph (North)    
Max Wind Speed 21 mph    
Max Gust Speed 24 mph    
Visibility 10 miles    
Events Rain    
T = Trace of Precipitation, MM = Missing Value Source: NWS Daily Summary

Daily Weather History Graph

Daily Weather History Graph

Search for Another Location

Airport or City:

Astronomy

Aug. 21, 2019 Rise Set
Actual Time 6:24 AM PDT 8:01 PM PDT
Civil Twilight 5:54 AM PDT 8:30 PM PDT
Nautical Twilight 5:19 AM PDT 9:05 PM PDT
Astronomical Twilight 4:41 AM PDT 9:43 PM PDT
Moon 11:16 PM PDT (8/21) 12:10 PM PDT (8/21)
Length of Visible Light 14h 35m
Length of Day
13h 36m
Waning Gibbous, 68% of the Moon is Illuminated
Aug 21
Waning Gibbous
Aug 23
Last Quarter
Aug 30
New
Sep 5
First Quarter
Sep 13
Full

Hourly Weather History & Observations

Time (PDT) Temp. Dew Point Humidity Pressure Visibility Wind Dir Wind Speed Gust Speed Precip Events Conditions
12:53 AM 69.1 °F 46.9 °F 45% 30.02 in 10.0 mi ENE 5.8 mph - N/A   Clear
1:53 AM 64.9 °F 46.0 °F 50% 30.03 in 10.0 mi Calm Calm - N/A   Clear
2:53 AM 64.9 °F 46.9 °F 52% 30.02 in 10.0 mi NE 3.5 mph - N/A   Clear
3:53 AM 62.1 °F 46.9 °F 58% 30.04 in 10.0 mi North 3.5 mph - N/A   Clear
4:53 AM 61.0 °F 46.9 °F 60% 30.04 in 10.0 mi WNW 3.5 mph - N/A   Clear
5:53 AM 57.9 °F 46.0 °F 65% 30.06 in 10.0 mi Calm Calm - N/A   Clear
6:53 AM 57.0 °F 46.0 °F 67% 30.07 in 10.0 mi Calm Calm - N/A   Clear
7:53 AM 63.0 °F 46.9 °F 56% 30.07 in 10.0 mi Calm Calm - N/A   Clear
8:53 AM 69.1 °F 48.0 °F 47% 30.06 in 10.0 mi Calm Calm - N/A   Clear
9:53 AM 72.0 °F 48.0 °F 43% 30.05 in 10.0 mi Calm Calm - N/A   Clear
10:53 AM 78.1 °F 44.1 °F 30% 30.04 in 10.0 mi NNW 3.5 mph - N/A   Clear
11:53 AM 77.0 °F 43.0 °F 30% 30.03 in 10.0 mi Calm Calm - N/A   Clear
12:53 PM 80.1 °F 42.1 °F 26% 30.01 in 10.0 mi Calm Calm - N/A   Overcast
1:53 PM 81.0 °F 39.9 °F 23% 30.01 in 10.0 mi North 3.5 mph - N/A   Scattered Clouds
2:53 PM 79.0 °F 43.0 °F 28% 29.99 in 10.0 mi NW 10.4 mph - 0.00 in Rain Light Rain
3:53 PM 82.0 °F 48.0 °F 30% 29.96 in 10.0 mi NNE 12.7 mph - 0.00 in   Mostly Cloudy
4:53 PM 78.1 °F 50.0 °F 37% 29.96 in 10.0 mi NNE 10.4 mph - 0.00 in Rain Light Rain
5:53 PM 79.0 °F 50.0 °F 36% 29.97 in 10.0 mi NNW 9.2 mph - 0.00 in   Overcast
6:53 PM 70.0 °F 55.9 °F 61% 30.00 in 10.0 mi North 16.1 mph - 0.00 in   Overcast
7:53 PM 66.0 °F 60.1 °F 81% 30.02 in 10.0 mi NNE 10.4 mph - 0.00 in   Overcast
8:53 PM 64.9 °F 60.1 °F 84% 30.03 in 10.0 mi North 8.1 mph - 0.00 in   Mostly Cloudy
9:14 PM 66.0 °F 59.0 °F 78% 30.06 in 10.0 mi North 10.4 mph - N/A   Mostly Cloudy
9:53 PM 66.0 °F 59.0 °F 78% 30.04 in 10.0 mi North 12.7 mph - N/A   Overcast
10:53 PM 64.0 °F 57.9 °F 80% 30.03 in 10.0 mi North 6.9 mph - N/A   Overcast
11:53 PM 64.9 °F 57.0 °F 75% 30.01 in 10.0 mi North 11.5 mph - N/A   Mostly Cloudy